www.pogodaiklimat.ru

Погода и климат >> Архив погоды >> Турция >> Finike


ПОГОДА в Finike

  • Прогноз погоды в Finike
  • Монитор погоды в Finike
  • Климат города

АРХИВ ПОГОДЫ в Finike

Время (UTC), дата Ветер
(напр.,м/с)
 
Видим.   Явления Облачность Т
(С)
Тd
(С)
f
(%)
Тe
(С)
Тes
(С)
Комфортность P
(гПа)
Po
(гПа)
Тmin
(С)
Tmax
(С)
R
(мм)
R24
(мм)
S
(см)
06 19.05 С 2 20 км в посл. час гроза 8/6 900 м
[Cb cap Ac lent]
+18.8 +12.4 66 +20 +22 1007.1 1006.9 +16.8 2
07 19.05 С 2 20 км 6/4 1000 м
[Cu med, cong Ac lent]
+20.2 +15.0 72 +23 +29 комфорт 1007.1 1006.9
08 19.05 ЮВ 2 20 км 5/5 600 м
[Cu med, cong]
+21.9 +16.5 71 +26 +34 душно 1007.1 1006.9
09 19.05 Ю 3
{6}
20 км гроза без осадков 6/6 800 м
[Cb cap]
+21.1 +15.0 68 +24 +30 комфорт 1007.2 1007.0
11 19.05 СЗ 1 20 км в посл. час гроза 6/6 600 м
[Cb cap]
+22.3 +12.3 53 +25 +34 комфорт 1006.6 1006.4
10 19.05 С 3 20 км гроза без осадков 6/6 600 м
[Cb cap]
+21.5 +14.5 64 +24 +32 комфорт 1006.9 1006.7
12 19.05 СВ 1
{6}
20 км {гроза} 5/5 900 м
[Cu med, cong]
+22.3 +13.7 58 +25 +35 комфорт 1006.6 1006.4 0.1
13 19.05 Ю 3 20 км 5/5 600 м
[Cu med, cong]
+21.4 +12.6 57 +24 +29 комфорт 1006.2 1006.0
14 19.05 ЮЗ 1 20 км 5/5 600 м
[Cu med, cong]
+21.2 +12.9 59 +23 +28 комфорт 1006.0 1005.8
15 19.05 С 2
{5}
20 км 5/5 900 м
[Cu med, cong]
+21.8 +13.7 60 +25 +27 комфорт 1006.0 1005.8
17 19.05 В 1 20 км 8/4 1000 м
[Cu med, cong Ac und]
+19.5 +13.7 69 +23 +23 комфорт 1006.7 1006.5
16 19.05 С 1 20 км 8/5 1000 м
[Cu med, cong Ac und]
+20.6 +14.3 67 +24 +25 комфорт 1006.4 1006.2
18 19.05 Ю 1
{5}
20 км 6/4 1000 м
[Cu med, cong Ac und]
+19.4 +13.8 70 +22 +22 комфорт 1007.2 1007.0 +23.2 0.1
06 20.05 С 1
{3}
20 км 4/4 900 м
[Cu med, cong]
+21.2 +12.9 59 +23 +29 комфорт 1007.7 1007.5 +15.5
07 20.05 ЮВ 1 20 км 4/4 600 м
[Cu med, cong]
+20.8 +14.5 67 +25 +33 комфорт 1007.9 1007.7
08 20.05 ЮВ 2 20 км 4/4 600 м
[Cu med, cong]
+22.4 +14.8 62 +26 +37 жарко 1007.7 1007.5
09 20.05 Ю 3
{5}
20 км 4/4 900 м
[Cb calv]
+22.4 +12.9 55 +25 +36 комфорт 1007.9 1007.7
11 20.05 Ю 2 10 км гроза, ливневой дождь 6/6 600 м
[Cb cap]
+20.7 +14.9 69 +24 +33 комфорт 1008.3 1008.1
10 20.05 Ю 3 20 км 5/5 600 м
[Cb cap]
+21.6 +15.7 69 +25 +34 комфорт 1007.9 1007.7
12 20.05 С 2
{6}
20 км гроза без осадков 6/6 800 м
[Cb cap]
+19.5 +15.4 77 +22 +29 комфорт 1008.4 1008.2 0.4
13 20.05 С 1 20 км в посл. час гроза 5/5 600 м
[Cb cap]
+22.6 +14.5 60 +26 +33 жарко 1008.4 1008.2
14 20.05 ЮВ 2 20 км 4/4 1000 м
[Cu med, cong]
+22.0 +14.9 64 +25 +30 комфорт 1007.9 1007.7
15 20.05 Ю 2
{3}
20 км {гроза} 3/3 1080 м
[Cu med, cong]
+21.4 +14.8 66 +24 +27 комфорт 1008.4 1008.2
17 20.05 З 1 20 км 1/1 1000 м
[Cu hum]
+20.2 +14.6 70 +24 +24 комфорт 1009.3 1009.1
16 20.05 Ю 2 20 км 3/3 1000 м
[Cu hum]
+20.9 +13.9 64 +24 +25 комфорт 1008.8 1008.6
18 20.05 С 1
{4}
20 км {гроза} ясно +19.2 +14.5 74 +22 +22 комфорт 1009.8 1009.6 +23.3 0.4
06 21.05 С 1
{5}
20 км ясно +22.5 +6.1 35 +23 +32 комфорт 1010.3 1010.1 +15.5
07 21.05 В 1 20 км ясно +22.6 +8.2 40 +24 +38 комфорт 1010.5 1010.3
08 21.05 Ю 2 20 км ясно +22.5 +12.2 52 +25 +42 комфорт 1010.6 1010.4
09 21.05 Ю 2
{4}
20 км 1/1 1080 м
[Cu hum]
+23.1 +14.4 58 +27 +44 душно 1010.5 1010.3
11 21.05 Ю 2 20 км 3/3 1000 м
[Cu med, cong]
+23.7 +15.3 59 +27 +40 жарко 1009.6 1009.4
10 21.05 Ю 2 20 км 1/1 1000 м
[Cu hum]
+23.1 +14.7 59 +27 +45 душно 1010.1 1009.9
12 21.05 Ю 3
{6}
20 км 3/3 1080 м
[Cu med, cong]
+23.9 +11.2 45 +25 +35 комфорт 1009.0 1008.8
13 21.05 Ю 3 20 км 5/3 1000 м
[Cu med, cong Ci fib]
+24.3 +13.8 52 +27 +34 жарко 1008.1 1007.9
14 21.05 ЮВ 2 20 км 3/3 1000 м
[Cu med, cong]
+24.4 +15.7 58 +27 +33 жарко 1007.9 1007.7
15 21.05 Ю 2
{8}
20 км 3/3 1080 м
[Cu med, cong]
+23.0 +15.9 64 +27 +30 душно 1007.9 1007.7
17 21.05 ЮЗ 1 20 км 3/3 1000 м
[Cu med, cong]
+21.3 +15.4 69 +24 +24 комфорт 1007.9 1007.7
16 21.05 ЮЗ 3 20 км 3/3 1000 м
[Cu med, cong]
+22.4 +15.3 64 +26 +27 жарко 1008.0 1007.8
18 21.05 С 1
{8}
20 км 4/4 1080 м
[Cu med, cong]
+20.7 +15.7 73 +25 +25 комфорт 1008.1 1007.9 +25.1
06 22.05 ЮВ 1
{3}
20 км 5/5 1020 м
[Cu med, cong]
+21.6 +15.9 70 +25 +30 комфорт 1007.6 1007.4 +16.8
07 22.05 ЮВ 2 20 км 5/5 1000 м
[Cu med, cong]
+21.9 +15.3 66 +25 +32 комфорт 1007.5 1007.3
08 22.05 ЮВ 2 20 км 5/5 1000 м
[Cu med, cong]
+22.3 +16.4 69 +27 +36 душно 1007.7 1007.5
09 22.05 Ю 2
{5}
20 км 6/6 1050 м
[Cu med, cong]
+22.3 +15.0 63 +26 +34 жарко 1008.1 1007.9
11 22.05 ЮВ 3 20 км 4/4 1000 м
[Cu med, cong]
+22.4 +16.0 67 +27 +37 душно 1007.2 1007.0
10 22.05 ЮВ 3 20 км 5/5 1000 м
[Cu med, cong]
+23.1 +16.5 66 +28 +37 душно 1007.8 1007.6
12 22.05 ЮВ 3
{5}
20 км 4/4 1050 м
[Cu med, cong]
+22.2 +16.1 68 +26 +35 душно 1006.9 1006.7
13 22.05 ЮВ 2 20 км 3/3 1000 м
[Cu med, cong]
+22.4 +14.6 61 +26 +34 жарко 1006.4 1006.2
14 22.05 ЮВ 2 20 км 4/4 600 м
[Cu med, cong]
+22.3 +14.7 62 +26 +30 жарко 1006.2 1006.0
15 22.05 Ю 2
{5}
20 км 5/5 960 м
[Cu med, cong]
+21.6 +13.8 61 +24 +26 комфорт 1006.2 1006.0
17 22.05 ЮВ 4 6000 м гроза, ливневой дождь 9/8 600 м
[Cb cap Ac As]
+15.9 +13.7 87 +15 +15 1007.2 1007.0
16 22.05 Ю 2 20 км зарница 6/6 600 м
[Cb cap]
+21.2 +15.1 68 +24 +25 комфорт 1006.5 1006.3
18 22.05 Ю 1
{7}
7000 м гроза, ливневой дождь 9/6 840 м
[Cb cap Ac As]
+16.7 +14.1 85 +18 +18 1008.7 1008.5 +23.7 25
06 23.05 В 1
{3}
20 км ясно +21.3 +10.4 50 +23 +32 комфорт 1010.1 1009.9 +15.2 0.8
07 23.05 ЮВ 1 20 км 1/1 1000 м
[Cu hum]
+22.4 +11.1 49 +25 +38 комфорт 1010.5 1010.3
08 23.05 ЮВ 2 20 км 1/1 1000 м
[Cu hum]
+23.4 +11.1 46 +26 +42 жарко 1010.8 1010.6
09 23.05 Ю 2
{5}
20 км 1/1 1080 м
[Cu hum]
+23.5 +11.5 47 +25 +43 комфорт 1011.2 1011.0
11 23.05 Ю 4 20 км 1/1 1000 м
[Cu hum]
+24.3 +9.7 40 +25 +37 комфорт 1011.1 1010.9
10 23.05 Ю 4 20 км 1/1 1000 м
[Cu hum]
+22.8 +13.6 56 +26 +38 жарко 1011.3 1011.1
12 23.05 ЮЗ 4
{9}
20 км 1/1 1080 м
[Cu hum]
+24.9 +12.1 45 +27 +36 жарко 1010.8 1010.6
13 23.05 ЮЗ 5 20 км 1/1 1000 м
[Cu hum]
+25.5 +11.6 42 +27 +33 жарко 1010.6 1010.4
14 23.05 ЮЗ 5 20 км 1/1 1000 м
[Cu hum]
+24.8 +9.4 38 +26 +29 жарко 1010.7 1010.5
15 23.05 Ю 4
{10}
20 км 1/1 1080 м
[Cu hum]
+23.8 +10.4 43 +25 +28 комфорт 1011.0 1010.8
17 23.05 С 2 20 км 1/1 1000 м
[Cu hum]
+22.2 +11.9 52 +25 +25 комфорт 1012.3 1012.1
16 23.05 ЮЗ 1 20 км 1/1 1000 м
[Cu hum]
+23.0 +11.0 47 +25 +26 комфорт 1011.5 1011.3
18 23.05 С 1
{10}
20 км 1/1 1080 м
[Cu hum]
+21.0 +12.7 59 +25 +25 комфорт 1012.6 1012.4 +25.6
06 24.05 ЮВ 1
{2}
20 км 1/1 1200 м
[Cu hum]
+21.8 +13.5 59 +25 +33 комфорт 1014.1 1013.9 +15.7
07 24.05 Ю 1 20 км 1/1 1000 м
[Cu hum]
+23.4 +14.4 57 +27 +40 душно 1014.5 1014.3
08 24.05 Ю 2 20 км 3/3 1000 м
[Cu med, cong]
+23.7 +15.0 58 +27 +39 жарко 1014.7 1014.5
09 24.05 ЮВ 2
{4}
20 км 3/3 1080 м
[Cu med, cong]
+23.5 +17.1 67 +27 +41 душно 1014.6 1014.4
11 24.05 Ю 5 20 км 3/3 1000 м
[Cu med, cong]
+23.5 +16.6 65 +27 +35 душно 1014.0 1013.8
10 24.05 Ю 3 20 км 3/3 1000 м
[Cu med, cong]
+24.2 +15.7 59 +27 +41 жарко 1014.3 1014.1
12 24.05 ЮЗ 4
{7}
20 км 3/3 1080 м
[Cu med, cong]
+24.4 +14.2 53 +27 +35 жарко 1013.7 1013.5
13 24.05 Ю 2 20 км 1/1 1000 м
[Cu hum]
+24.7 +17.0 62 +28 +39 душно 1013.4 1013.2
14 24.05 Ю 3 20 км 1/1 1000 м
[Cu hum]
+24.6 +16.1 59 +28 +34 душно 1013.0 1012.8
15 24.05 Ю 3
{6}
20 км 3/3 1080 м
[Cu hum]
+23.7 +16.1 62 +27 +29 жарко 1012.9 1012.7
17 24.05 СЗ 2 20 км 3/3 1000 м
[Cu hum]
+22.5 +15.2 63 +26 +26 жарко 1013.5 1013.3
16 24.05 СЗ 2 20 км 3/3 1000 м
[Cu hum]
+23.5 +14.8 58 +26 +27 жарко 1013.1 1012.9
18 24.05 С 1
{6}
20 км 3/3 1080 м
[Cu hum]
+21.8 +16.1 70 +26 +26 душно 1013.9 1013.7 +25.4
06 25.05 ЮВ 1
{3}
20 км ясно +22.1 +12.7 55 +25 +34 комфорт 1014.3 1014.1 +16.7
07 25.05 Ю 2 20 км ясно +23.0 +15.6 63 +27 +40 душно 1014.4 1014.2
08 25.05 Ю 2 20 км 3/3 1000 м
[Cu med, cong]
+23.7 +18.6 73 +28 +40 душно 1015.0 1014.8
09 25.05 Ю 3
{5}
20 км 4/4 1000 м
[Cu med, cong]
+22.7 +17.7 73 +28 +38 душно 1015.5 1015.3
11 25.05 Ю 3 20 км 4/4 600 м
[Cu med, cong]
+23.1 +17.4 70 +28 +38 душно 1014.9 1014.7
10 25.05 Ю 3 20 км 4/4 1000 м
[Cu med, cong]
+22.8 +17.7 73 +28 +38 душно 1015.4 1015.2
12 25.05 Ю 3
{6}
20 км зарница 4/4 870 м
[Cb cap]
+23.0 +16.6 67 +28 +36 душно 1014.5 1014.3
13 25.05 Ю 3 20 км 4/4 600 м
[Cu med, cong]
+23.1 +16.2 65 +28 +34 душно 1014.3 1014.1
14 25.05 Ю 3 20 км 1/1 1000 м
[Cu hum]
+23.0 +15.4 62 +27 +33 душно 1013.9 1013.7
15 25.05 ЮВ 2
{5}
20 км 3/3 960 м
[Cu med, cong]
+22.9 +15.5 63 +27 +30 душно 1013.6 1013.4
17 25.05 В 1 20 км 4/4 600 м
[Cu med, cong]
+20.9 +15.7 72 +26 +26 душно 1013.8 1013.6
16 25.05 ЮЗ 2 20 км 4/4 1000 м
[Cu med, cong]
+21.6 +15.5 68 +25 +26 комфорт 1013.6 1013.4
18 25.05 С 1
{5}
20 км 4/4 1000 м
[Cu med, cong]
+20.7 +15.7 73 +25 +25 комфорт 1013.4 1013.2 +23.9

 

Местоположение метеостанции Finike (Турция): широта 36.30 долгота 30.15 высота над уровнем моря 2 м.

В архиве по умолчанию представлена погода в Finike за последнюю неделю. Архивные данные за месяц целиком и за предыдущие месяцы, начиная с января 2011 года, Вы можете получить, выбрав интересующий диапазон дат из раскрывающегося списка и нажав кнопку "Ввод!".

Внимание! Время в таблицах - всемирное. Для получения местного времени необходимо прибавить поправку, которая в Finike равна 2 ч.

Смотрите также архив погоды в соседних городах и на ближайших метеорологических станциях:

Погода в Kas (Турция) (46 км)
Погода в Antalya (Турция) (82 км)
Погода в Fethiye (Турция) (99 км)
Погода в Side (Турция) (122 км)
Погода в Dalaman (Турция) (130 км)
Погода в Burdur (Турция) (153 км)
Погода в Isparta (Турция) (165 км)
Погода в Alanya (Турция) (168 км)
Погода в Suleyman Demirel (Турция) (174 км)
Погода в Marmaris (Турция) (179 км)

Пояснения к столбцам:

Ветер - указаны скорость ветра в м/с - средняя за 10 мин, порывы в срок и между сроками (в фигурных скобках) и направление, откуда дует ветер: С - северный, СВ - северо-восточный, В - восточный, ЮВ - юго-восточный, Ю - южный, ЮЗ - юго-западный, З - западный, СЗ - северо-западный.
Видимость - горизонтальная дальность видимости в метрах или километрах. При видимости от 1 до 10 км при отсутствии осадков обычно наблюдается дымка, при ухудшении видимости до 1 км и менее - туман. В сухую погоду видимость может ухудшаться дымом, пылью или мглою.
Явления - указаны атмосферные явления, наблюдавшиеся в срок или в последний час перед сроком; фигурными скобками обозначены явления, наблюдавшиеся между сроками (за 1-3 часа до срока); квадратными скобками обозначены град или гололедные отложения с указанием их диаметра в мм.
Облачность - указаны через наклонную черту общая и нижняя облачность в баллах и высота нижней границы облаков в метрах; квадратными скобками обозначены формы облаков: Ci - перистые, Cs - перисто-слоистые, Cc - перисто-кучевые, Ac - высококучевые, As - высокослоистые, Sc - слоисто-кучевые, Ns - слоисто-дождевые, Cu - кучевые, Cb - кучево-дождевые. Подробнее классификацию облаков см. в Атласе облаков (PDF).
T - Температура воздуха - температура, измеренная на высоте 2 м над землей.
Td - Температура точки росы - температура, при понижении до которой содержащийся в воздухе водяной пар достигнет насыщения.
f - Относительная влажность воздуха - влажноcть воздуха, измеренная на высоте 2 м над землей.
Te - Эффективная температура - температура, которую ощущает одетый по сезону человек в тени. Характеристика душности погоды. При расчете учитывается влияние влажности воздуха и скорости ветра на теплоощущения человека.
Tes - Эффективная температура на солнце - температура, которую ощущает человек, с поправкой на солнечный нагрев. Характеристика знойности погоды. Зависит от высоты солнца над горизонтом, облачности и скорости ветра. Ночью, в пасмурную погоду, а также при ветре 12 м/с и более поправка равна нулю.
P - Атмосферное давление - приведенное к уровню моря атмосферное давление.
Po - Атмосферное давление - измеренное на уровне метеостанции атмосферное давление.
Tmin - Минимальная температура - минимум температуры воздуха на высоте 2 м над землей.
Tmax - Максимальная температура - максимум температуры воздуха на высоте 2 м над землей.
R - Количество осадков - Количество выпавших осадков за период времени, мм. При наведении курсора мыши на число - период времени, за который выпало указанное количество осадков.
R24 - Количество осадков - Количество выпавших осадков за 24 часа, мм.
S - Снежный покров - Высота снежного покрова, см. При наведении курсора мыши на число - состояние снежного покрова и степень покрытия местности в баллах.